Location: Beaver Meadows
(40.3728°N, 105.6136°W)
Time: 20:32:15
(UTC-06:00)

ISS - Visible Passes

Search period start: 24 July 2017 00:00
Search period end: 03 August 2017 00:00
Orbit: 400 x 408 km, 51.6° (Epoch: 25 July)

Date Brightness Start Highest point End Pass type
(mag) Time Alt. Az. Time Alt. Az. Time Alt. Az.
24 Jul -0.3 00:44:58 10° NNW 00:46:14 12° N 00:47:30 10° NNE visible
24 Jul -0.7 02:21:40 10° NNW 02:23:47 16° NNE 02:25:52 10° ENE visible
24 Jul -3.4 03:57:31 10° NW 04:00:45 64° NE 04:03:58 10° ESE visible
24 Jul -2.3 22:13:22 10° W 22:16:25 37° NNW 22:19:29 10° NE visible
24 Jul -0.4 23:51:57 10° NW 23:53:35 13° N 23:55:15 10° NNE visible
25 Jul -0.5 01:29:32 10° NNW 01:31:10 13° N 01:32:47 10° NE visible
25 Jul -2.3 03:07:44 32° N 03:08:22 36° NNE 03:11:24 10° E visible
25 Jul -2.8 04:41:59 10° WNW 04:44:43 25° SW 04:47:28 10° SSE visible
25 Jul -3.5 21:20:48 10° WSW 21:24:01 67° NW 21:27:15 10° NE visible
25 Jul -0.7 22:58:51 10° WNW 23:00:59 16° NNW 23:03:06 10° NNE visible
26 Jul -0.4 00:37:16 10° NNW 00:38:30 12° N 00:39:29 11° NNE visible
26 Jul -1.1 22:05:49 10° WNW 22:08:24 21° NNW 22:10:59 10° NNE visible
26 Jul -0.4 23:44:38 10° NNW 23:45:48 11° N 23:47:00 10° NNE visible
27 Jul -1.8 21:12:55 10° W 21:15:52 31° NNW 21:18:50 10° NE visible
27 Jul -0.6 22:51:38 10° NW 22:53:07 12° N 22:54:37 10° NNE visible
28 Jul -0.5 00:28:54 10° NNW 00:29:56 13° N 00:29:56 13° N visible
28 Jul -0.8 21:58:29 10° NW 22:00:27 15° NNW 22:02:24 10° NNE visible
28 Jul -0.6 23:36:39 10° NNW 23:37:59 12° N 23:39:05 11° NNE visible
29 Jul -1.0 21:05:22 10° WNW 21:07:49 19° NNW 21:10:15 10° NNE visible
29 Jul -0.6 22:44:07 10° NNW 22:45:15 11° N 22:46:25 10° NNE visible
30 Jul -0.4 00:20:19 10° NNW 00:20:52 13° NNW 00:20:52 13° NNW visible
30 Jul -0.7 21:51:10 10° NNW 21:52:32 12° N 21:53:53 10° NNE visible
30 Jul -0.9 23:28:08 10° NNW 23:30:04 15° NNE 23:30:05 15° NNE visible
31 Jul -0.9 20:58:01 10° NW 20:59:48 14° NNW 21:01:36 10° NNE visible
31 Jul -0.9 22:35:53 10° NNW 22:37:21 12° N 22:38:49 10° NE visible
01 Aug -0.4 00:11:40 10° NW 00:11:56 12° NW 00:11:56 12° NW visible
01 Aug -0.8 21:43:26 10° NNW 21:44:36 11° N 21:45:47 10° NNE visible
01 Aug -1.2 23:19:27 10° NNW 23:21:11 19° N 23:21:11 19° N visible
02 Aug -0.9 20:50:34 10° NNW 20:51:50 12° N 20:53:05 10° NNE visible
02 Aug -1.3 22:27:15 10° NNW 22:29:21 16° NNE 22:30:27 14° NE visible
